Regional Weather Roundup
Issued by NWS

Home | Current Version | Previous Version | Text Only | Print | Product List | Glossary Off
Versions: 1 2 3 4 5 6 7 8 9 10 11 12 13 14 15 16 17 18 19 20 21 22 23 24 25 26 27 28 29 30 31 32 33 34 35 36 37 38 39 40 41 42 43 44 45 46 47 48 49 50

981
ASUS43 KMPX 061310
RWRMN
WEATHER ROUNDUP FOR MINNESOTA
NATIONAL WEATHER SERVICE TWIN CITIES/CHANHASSEN MN
700 AM CST TUE DEC 06 2016


NOTE: "FAIR" INDICATES FEW OR NO CLOUDS BELOW 12,000 FEET WITH NO
SIGNIFICANT WEATHER AND/OR OBSTRUCTIONS TO VISIBILITY. N/A MEANS
CURRENT SKY AND/OR WEATHER CONDITIONS ARE NOT AVAILABLE.

MNZ060>063-068>070-061400-
   Twin Cities Metro

CITY           SKY/WX    TMP DP  RH WIND       PRES   REMARKS
TWIN CITIES    CLOUDY    25  15  66 W17G26    29.73R WCI  12
ST PAUL        CLOUDY    25  18  74 W17G32    29.74R WCI  12
CRYSTAL        CLOUDY    23  12  62 SW16G23   29.72R WCI  10
BLAINE         CLOUDY    25  18  74 SW14G24   29.71R WCI  13
LAKEVILLE      CLOUDY    23  18  80 W13G28    29.75R WCI  11
EDEN PRAIRIE   CLOUDY    23  13  65 SW16G31   29.73R WCI  10
SOUTH ST PAUL  CLOUDY    26  17  68 SW10G23   29.73S WCI  17
LAKE ELMO      CLOUDY    28  21  74 SW15G22   29.72R WCI  17
$$
MNZ001>005-007-008-013>017-022>024-027-028-061400-
   Northwest Minnesota

CITY           SKY/WX    TMP DP  RH WIND       PRES   REMARKS
BEMIDJI        CLOUDY    19  15  83 S13G21    29.42S WCI   6
HALLOCK        LGT SNOW  30  30 100 N18       29.26S WCI  18
ROSEAU         CLOUDY    25  19  80 S16G26    29.35R WCI  12
WARROAD        CLOUDY    27  23  86 S13G18    29.37R WCI  16
THIEF RVR FALL LGT SNOW  21  19  92 S23       29.31S FOG     WCI   5
CROOKSTON      LGT SNOW  25  25 100 S18       29.30F WCI  11
FOSSTON        FLURRIES  18  16  93 S26G32    29.36F WCI  -1
DETROIT LAKES  LGT SNOW  21  18  86 S21G29    29.42F WCI   6
MOORHEAD       MIX PCPN  25  25 100 SW12G21   29.40F WCI  14
PARK RAPIDS    CLOUDY    19  11  70 S17       29.46F WCI   4
$$
MNZ006-009>011-018-025>026-061400-
   North Central Minnesota

CITY           SKY/WX    TMP DP  RH WIND       PRES   REMARKS
BAUDETTE       CLOUDY    27  21  78 S15       29.39R WCI  15
FLAG ISLAND    CLOUDY    30  28  93 S28G33    29.36R WCI  16
INTL FALLS     CLOUDY    30  25  81 S10G18    29.44S WCI  21
WASKISH        CLOUDY    25  19  80 S10G17    29.43R WCI  15
BIG FORK       CLOUDY    25  19  80 S14G21    29.46F WCI  13
LONGVILLE      CLOUDY    19  16  86 S13G18    29.51F WCI   7
GRAND RAPIDS   FLURRIES  23  18  81 S14G25    29.52S WCI  11
CRANE LAKE     CLOUDY    30  28  93 S8G20     29.49S WCI  23
COOK           CLOUDY    28  25  86 S10G20    29.48F WCI  19
$$
MNZ012-019>021-037-061400-
   Northeast Minnesota

CITY           SKY/WX    TMP DP  RH WIND       PRES   REMARKS
DULUTH         CLOUDY    29  24  82 SW22G29   29.54S WCI  15
ELY            CLOUDY    32  28  86 S9        29.49F WCI  24
HIBBING        CLOUDY    26  21  81 MISG      29.51R
EVELETH        CLOUDY    30  25  83 SW12      29.52S WCI  20
DULUTH HARBOR  CLOUDY    34  28  80 SW15      29.59S WCI  24
TWO HARBORS    MOCLDY    36  30  80 SW16      29.54S
SILVER BAY     LGT SNOW  34  34 100 SW8       29.54S WCI  27
GRAND MARAIS     N/A     37  36  96 S23       29.61F
G MARAIS ARPRT MIX PCPN  30  28  93 SE12      29.55F VSB 1/4 WCI  21
$$
MNZ029>031-032-039>041-046>048-054>057-064-061400-
   West Central Minnesota

CITY           SKY/WX    TMP DP  RH WIND       PRES   REMARKS
FERGUS FALLS   CLOUDY    19  16  86 SW22      29.54F WCI   3
WHEATON        LGT SNOW  19  18  93 SW25G31   29.58F WCI   2
MORRIS         LGT SNOW  19  12  73 SW25G37   29.60S WCI   2
ALEXANDRIA     LGT SNOW  17  12  80 SW23G35   29.57F WCI  -1
ELBOW LAKE     LGT SNOW  17  15  91 W20G28    29.55F VSB 1   WCI   1
WADENA         MIX PCPN  18  12  79 S20G25    29.50F WCI   1
GLENWOOD       LGT SNOW  18  12  79 SW29G36   29.60S WCI  -2
APPLETON       CLOUDY    19  10  68 W25G35    29.65S WCI   2
BENSON         FLURRIES  18  10  73 W24G30    29.65F WCI   0
ORTONVILLE     CLOUDY    18  10  73 W22G32    29.63F WCI   0
MADISON        CLOUDY    21  12  68 W24G36    29.70F WCI   4
WILLMAR        CLOUDY    19  14  79 SW22G29   29.70F WCI   3
$$
MNZ033>034-036-042>043-049>051-058-059-061400-
   Central Minnesota

CITY           SKY/WX    TMP DP  RH WIND       PRES   REMARKS
ST CLOUD       CLOUDY    21  14  74 SW21G31   29.66S WCI   5
PAYNESVILLE    FLURRIES  19  13  79 SW24G33   29.67S WCI   1
AITKIN         CLOUDY    25  16  68 S15G21    29.55S WCI  12
PINE RIVER     CLOUDY    19  16  86 S15       29.56F WCI   5
BRAINERD       CLOUDY    20  14  77 SW20G26   29.57S WCI   4
STAPLES        FLURRIES  18  12  79 SW16G22   29.53F WCI   3
LONG PRAIRIE   LGT SNOW  18  12  79 S22G30    29.60R WCI   0
LITTLE FALLS   FLURRIES  21  12  68 SW13G24   29.61F WCI   9
LITCHFIELD     MOCLDY    19  12  73 SW10G22   29.70S WCI   8
BUFFALO        CLOUDY    22  15  74 SW14G22   29.72S WCI   9
MAPLE LAKE     CLOUDY    22  17  78 SW15G23   29.70S WCI   9
$$
MNZ037-044-045-052-053-061400-
   East Central Minnesota

CITY           SKY/WX    TMP DP  RH WIND       PRES   REMARKS
PRINCETON      CLOUDY    25  16  68 S10       29.65F WCI  15
MORA           CLOUDY    25  18  74 SW14G24   29.65F WCI  13
CAMBRIDGE      CLOUDY    25  16  68 SW14G22   29.66R WCI  13
RUSH CITY      CLOUDY    25  19  80 SW18      29.67R WCI  11
MOOSE LAKE     CLOUDY    28  21  74 SW17      29.57F WCI  16
HINCKLEY       CLOUDY    27  21  80 SW18      29.64S WCI  13
CLOQUET        CLOUDY    28  21  74 S17G24    29.56S WCI  16
MCGREGOR       CLOUDY    23  19  86 SW15G25   29.57S WCI  10
$$
MNZ071>073-080-081-089-090-097-098-061400-
   Southwest Minnesota

CITY           SKY/WX    TMP DP  RH WIND       PRES   REMARKS
MONTEVIDEO     CLOUDY    19  10  68 W18G32    29.72R WCI   4
GRANITE FALLS  CLOUDY    19  12  73 SW28G35   29.75F WCI   1
CANBY          MOCLDY    18  10  72 SW30G39   29.73F WCI  -2
MARSHALL       FLURRIES  16   9  74 W29       29.76S WCI  -4
REDWOOD FALLS  CLOUDY    19   8  62 W24G36    29.76F WCI   2
OLIVIA         FLURRIES  21  14  73 W23G29    29.72F WCI   5
PIPESTONE      CLOUDY    16   9  73 W29G37    29.77S WCI  -4
WINDOM         MOCLDY    16  10  79 W24G30    29.78S WCI  -3
WORTHINGTON    FLURRIES  15  10  80 W36G41    29.76F WCI  -7
JACKSON        MOCLDY    16  10  79 W14G22    29.81R WCI   1
TRACY          FLURRIES  18  12  76 W14G28    29.77S WCI   4
SLAYTON        MOCLDY    15   9  78 W25G33    29.77R WCI  -5
$$
MNZ065>067-074>077-082>085-091>093-061400-
   South Central Minnesota

CITY           SKY/WX    TMP DP  RH WIND       PRES   REMARKS
MANKATO        MOCLDY    21  14  74 W16G23    29.79R WCI   7
NEW ULM        MOCLDY    18  10  73 W20G28    29.79R WCI   1
ST JAMES       PTCLDY    18  12  79 SW17G26   29.82R WCI   2
FAIRMONT       PTCLDY    18  12  77 W23       29.82R WCI   0
GLENCOE        CLOUDY    21  16  81 SW20G30   29.75R WCI   6
FARIBAULT      CLOUDY    25  19  80 SW16G24   29.77R WCI  12
OWATONNA       CLOUDY    25  18  74 W21       29.76R WCI  10
WASECA         CLOUDY    23  18  80 W21       29.79R WCI   8
ALBERT LEA     MOCLDY    27  19  74 W17G25    29.78R WCI  14
$$
MNZ078>079-086>088-094>096-061400-
   Southeast Minnesota

CITY           SKY/WX    TMP DP  RH WIND       PRES   REMARKS
ROCHESTER      LGT SNOW  28  25  88 W17       29.73F FOG     WCI  16
RED WING       CLOUDY    30  27  86 W8G16     29.72S WCI  23
STANTON        CLOUDY    27  18  69 W14G25    29.74R WCI  16
DODGE CENTER   CLOUDY    27  21  80 W18G26    29.74R WCI  13
WINONA         LGT SNOW  34  32  93 W5        29.75F WCI  30
AUSTIN         CLOUDY    27  21  80 W10       29.77R WCI  17
PRESTON        LGT SNOW  28  26  91 W9        29.74F WCI  20
$$
ABBREVIATIONS USED IN REMARKS
   TC - TEMPERATURES IN CELSIUS
  WCI - WIND CHILL INDEX
   HX - HEAT INDEX
  VSB - VISIBILITY
$$




USA.gov is the U.S. government's official web portal to all federal, state and local government web resources and services.